ROMMA est une association bénévole à but non lucratif. Votre soutien est indispensable : ADHERER à ROMMA ou FAIRE un DON

St-Christophe/Guiers - Berland - (38, Isère)

Massif de la Chartreuse (533 m)   Longitude: 05° 46' 44" E   Latitude: 45° 25' 43" N Station partenaire n°32
 

Détail journalier du     <<     >>

Température Precipitation Humidité Pression Vent Dir Rafale Dir. rafale Ensol.
Heure (°C) (mm) (%) (hPa) (km/h) (km/h) (min)
01:00 7.609410091---8NE0
02:00 7.1095100900---0
03:00 7.0095100800---0
04:00 6.1096100803NE0
05:00 5.3095100806NE0
06:00 5.4096100806ENE0
07:00 5.60.296100803NE0
08:00 5.6096100800---0
09:00 6.2096100906ONO0
10:00 6.809610091ONO8O0
11:00 7.809310093ONO10ONO0
12:00 9.408810093O10ONO0
13:00 11.307910096ONO15SO5
14:00 11.707610095SSO15OSO0
15:00 12.807010087OSO18OSO10
16:00 10.30.28010087O27NNO5
17:00 11.208310085SO15S0
18:00 11.408010083ENE10ENE0
19:00 10.807710083---16ESE0
20:00 9.10.48710095ENE18ENE0
21:00 8.808910102ESE8ENE0
22:00 8.50.49310102E6NE0
23:00 8.509110112ESE11SSO0
minuit 8.609010111---6SE0

Graphique du 10-04-2019

 

Serveur OMMA